| time (UTC) | temp F | wind direction | speed MPH | gust MPH | rain 1hr in | rain 24hr in | rain mn in | humidity % | barometer mb |
| 20260509011450 | 58 | 99 | 0.0 | 0.0 | 0.00 | 0.11 | 0.11 | 73 | 1014.4 |
| 20260509010948 | 58 | 99 | 0.0 | 0.0 | 0.00 | 0.11 | 0.11 | 71 | 1014.3 |
| 20260509010446 | 59 | 99 | 0.0 | 0.0 | 0.00 | 0.11 | 0.11 | 72 | 1014.2 |
| 20260509005942 | 59 | 99 | 0.0 | 0.0 | 0.00 | 0.11 | 0.11 | 71 | 1014.3 |
| 20260509005440 | 59 | 99 | 0.0 | 0.0 | 0.00 | 0.11 | 0.11 | 68 | 1014.2 |
| 20260509004940 | 59 | 99 | 0.0 | 0.0 | 0.00 | 0.11 | 0.11 | 70 | 1014.4 |
| 20260509004437 | 59 | 99 | 0.0 | 0.0 | 0.00 | 0.11 | 0.11 | 71 | 1014.2 |
| 20260509003935 | 60 | 99 | 0.0 | 0.0 | 0.00 | 0.11 | 0.11 | 71 | 1014.1 |
| 20260509003433 | 60 | 99 | 0.0 | 0.0 | 0.00 | 0.11 | 0.11 | 70 | 1014.2 |
| 20260509002929 | 60 | 99 | 0.0 | 0.0 | 0.00 | 0.11 | 0.11 | 68 | 1014.4 |
| 20260509002427 | 61 | 99 | 0.0 | 0.0 | 0.00 | 0.11 | 0.11 | 69 | 1014.0 |
| 20260509001924 | 61 | 99 | 0.0 | 0.0 | 0.00 | 0.11 | 0.11 | 67 | 1014.1 |
| 20260509001420 | 62 | 99 | 0.0 | 0.0 | 0.00 | 0.11 | 0.11 | 67 | 1014.2 |
| 20260509000917 | 62 | 99 | 0.0 | 0.0 | 0.00 | 0.11 | 0.11 | 66 | 1014.3 |
| 20260509000417 | 62 | 99 | 0.0 | 0.0 | 0.00 | 0.11 | 0.11 | 65 | 1014.2 |
| 20260508235911 | 63 | 99 | 0.0 | 0.0 | 0.00 | 0.11 | 0.11 | 64 | 1014.3 |
| 20260508235409 | 63 | 99 | 0.0 | 0.0 | 0.00 | 0.11 | 0.11 | 64 | 1014.2 |
| 20260508234905 | 63 | 99 | 0.0 | 0.0 | 0.00 | 0.11 | 0.11 | 65 | 1014.2 |
| 20260508234402 | 64 | 99 | 0.0 | 0.0 | 0.00 | 0.11 | 0.11 | 64 | 1014.4 |
| 20260508233900 | 64 | 99 | 0.0 | 0.0 | 0.00 | 0.11 | 0.11 | 64 | 1014.2 |
| 20260508233400 | 64 | 105 | 0.0 | 0.0 | 0.00 | 0.11 | 0.11 | 64 | 1014.4 |
| 20260508232856 | 65 | 105 | 0.0 | 0.0 | 0.00 | 0.11 | 0.11 | 65 | 1014.3 |
| 20260508232352 | 65 | 105 | 0.0 | 0.0 | 0.00 | 0.11 | 0.11 | 63 | 1014.4 |
| 20260508231850 | 66 | 106 | 0.0 | 0.0 | 0.00 | 0.11 | 0.11 | 62 | 1014.3 |
| 20260508231346 | 66 | 97 | 1.0 | 1.0 | 0.00 | 0.11 | 0.11 | 61 | 1014.4 |
| 20260508230843 | 66 | 102 | 0.0 | 1.0 | 0.00 | 0.11 | 0.11 | 60 | 1014.2 |
| 20260508230340 | 67 | 87 | 1.0 | 1.0 | 0.00 | 0.11 | 0.11 | 59 | 1014.4 |
| 20260508225838 | 67 | 100 | 0.0 | 1.0 | 0.00 | 0.11 | 0.11 | 60 | 1014.2 |
| 20260508225334 | 68 | 90 | 0.0 | 0.0 | 0.00 | 0.11 | 0.11 | 55 | 1014.4 |
| 20260508224832 | 69 | 90 | 0.0 | 0.0 | 0.00 | 0.11 | 0.11 | 57 | 1014.1 |
| 20260508224329 | 69 | 98 | 0.0 | 1.0 | 0.00 | 0.11 | 0.11 | 51 | 1014.3 |
| 20260508223827 | 69 | 90 | 0.0 | 0.0 | 0.00 | 0.11 | 0.11 | 56 | 1014.2 |
| 20260508223324 | 68 | 90 | 0.0 | 0.0 | 0.00 | 0.11 | 0.11 | 55 | 1014.3 |
| 20260508222821 | 69 | 90 | 0.0 | 1.0 | 0.00 | 0.11 | 0.11 | 50 | 1014.3 |
| 20260508222318 | 69 | 91 | 0.0 | 0.0 | 0.00 | 0.11 | 0.11 | 53 | 1014.1 |
| 20260508221815 | 69 | 89 | 1.0 | 1.0 | 0.00 | 0.11 | 0.11 | 45 | 1014.5 |
| 20260508221310 | 70 | 91 | 0.0 | 1.0 | 0.00 | 0.11 | 0.11 | 47 | 1014.3 |
| 20260508220807 | 69 | 91 | 0.0 | 1.0 | 0.00 | 0.11 | 0.11 | 50 | 1014.3 |
| 20260508220304 | 70 | 101 | 0.0 | 1.0 | 0.00 | 0.11 | 0.11 | 53 | 1014.5 |
| 20260508215800 | 71 | 90 | 1.0 | 1.0 | 0.00 | 0.11 | 0.11 | 52 | 1014.6 |
| 20260508215257 | 70 | 98 | 0.0 | 1.0 | 0.00 | 0.11 | 0.11 | 44 | 1014.4 |
| 20260508214754 | 70 | 85 | 1.0 | 2.0 | 0.05 | 0.11 | 0.11 | 46 | 1014.5 |
| 20260508214251 | 71 | 102 | 0.0 | 1.0 | 0.05 | 0.11 | 0.11 | 46 | 1014.5 |
| 20260508213747 | 70 | 89 | 0.0 | 2.0 | 0.00 | 0.10 | 0.10 | 43 | 1014.8 |
| 20260508213244 | 71 | 94 | 2.0 | 2.0 | 0.00 | 0.10 | 0.10 | 48 | 1014.7 |
| 20260508212741 | 71 | 101 | 1.0 | 1.0 | 0.00 | 0.10 | 0.10 | 48 | 1014.5 |
| 20260508212237 | 70 | 96 | 0.0 | 2.0 | 0.00 | 0.10 | 0.10 | 46 | 1014.7 |
| 20260508211733 | 71 | 80 | 1.0 | 5.0 | 0.00 | 0.10 | 0.10 | 47 | 1014.8 |
| 20260508211229 | 71 | 82 | 1.0 | 1.0 | 0.00 | 0.10 | 0.10 | 44 | 1014.8 |
| 20260508210727 | 71 | 84 | 1.0 | 2.0 | 0.00 | 0.10 | 0.10 | 44 | 1014.7 |
| 20260508210223 | 71 | 110 | 1.0 | 3.0 | 0.00 | 0.10 | 0.10 | 44 | 1014.6 |
| 20260508205720 | 71 | 81 | 3.0 | 3.0 | 0.00 | 0.10 | 0.10 | 43 | 1014.6 |
| 20260508205216 | 70 | 104 | 0.0 | 3.0 | 0.00 | 0.10 | 0.10 | 44 | 1014.5 |
| 20260508204712 | 70 | 92 | 0.0 | 1.0 | 0.07 | 0.10 | 0.10 | 43 | 1014.6 |
| 20260508204209 | 70 | 99 | 0.0 | 0.0 | 0.07 | 0.10 | 0.10 | 43 | 1014.7 |
| 20260508203705 | 71 | 75 | 1.0 | 3.0 | 0.00 | 0.09 | 0.09 | 43 | 1014.8 |
| 20260508203202 | 70 | 82 | 1.0 | 2.0 | 0.00 | 0.09 | 0.09 | 41 | 1015.0 |
| 20260508202658 | 70 | 106 | 1.0 | 2.0 | 0.00 | 0.09 | 0.09 | 44 | 1015.1 |
| 20260508202155 | 70 | 90 | 1.0 | 2.0 | 0.00 | 0.09 | 0.09 | 43 | 1014.9 |
| 20260508201652 | 69 | 90 | 0.0 | 1.0 | 0.00 | 0.09 | 0.09 | 41 | 1014.9 |
| 20260508201149 | 69 | 113 | 0.0 | 2.0 | 0.00 | 0.09 | 0.09 | 48 | 1014.9 |
| 20260508200646 | 70 | 91 | 1.0 | 1.0 | 0.00 | 0.09 | 0.09 | 41 | 1015.0 |
| 20260508200142 | 70 | 103 | 1.0 | 1.0 | 0.05 | 0.09 | 0.09 | 43 | 1015.1 |
| 20260508195638 | 69 | 90 | 0.0 | 0.0 | 0.00 | 0.08 | 0.08 | 41 | 1015.2 |
| 20260508195134 | 69 | 102 | 0.0 | 2.0 | 0.00 | 0.08 | 0.08 | 48 | 1015.4 |
| 20260508194631 | 69 | 94 | 0.0 | 1.0 | 0.00 | 0.08 | 0.08 | 43 | 1015.3 |
| 20260508194128 | 69 | 106 | 1.0 | 2.0 | 0.00 | 0.08 | 0.08 | 45 | 1015.4 |
| 20260508193625 | 69 | 107 | 0.0 | 2.0 | 0.00 | 0.08 | 0.08 | 44 | 1015.5 |
| 20260508193122 | 69 | 97 | 0.0 | 1.0 | 0.00 | 0.08 | 0.08 | 44 | 1015.6 |
| 20260508192618 | 69 | 106 | 1.0 | 2.0 | 0.07 | 0.08 | 0.08 | 43 | 1016.0 |
| 20260508192115 | 70 | 98 | 0.0 | 2.0 | 0.00 | 0.07 | 0.07 | 41 | 1016.3 |
| 20260508191612 | 69 | 84 | 1.0 | 2.0 | 0.00 | 0.07 | 0.07 | 42 | 1016.4 |
| 20260508191109 | 70 | 94 | 0.0 | 3.0 | 0.00 | 0.07 | 0.07 | 45 | 1016.5 |
| 20260508190606 | 70 | 112 | 1.0 | 2.0 | 0.05 | 0.07 | 0.07 | 45 | 1016.6 |
| 20260508185600 | 69 | 113 | 1.0 | 2.0 | 0.00 | 0.06 | 0.06 | 44 | 1016.6 |
| 20260508185057 | 68 | 115 | 1.0 | 1.0 | 0.00 | 0.06 | 0.06 | 46 | 1016.9 |
| 20260508184554 | 69 | 30 | 3.0 | 5.0 | 0.07 | 0.06 | 0.06 | 41 | 1016.8 |
| 20260508184051 | 69 | 101 | 1.0 | 1.0 | 0.07 | 0.06 | 0.06 | 46 | 1016.8 |
| 20260508183548 | 69 | 112 | 2.0 | 3.0 | 0.00 | 0.05 | 0.05 | 41 | 1016.8 |
| 20260508183044 | 70 | 96 | 0.0 | 1.0 | 0.05 | 0.05 | 0.05 | 41 | 1016.9 |
| 20260508182540 | 69 | 86 | 0.0 | 2.0 | 0.05 | 0.05 | 0.05 | 41 | 1017.0 |
| 20260508182037 | 69 | 87 | 1.0 | 1.0 | 0.00 | 0.04 | 0.04 | 42 | 1017.2 |
| 20260508181532 | 69 | 90 | 0.0 | 2.0 | 0.00 | 0.04 | 0.04 | 37 | 1017.0 |
| 20260508181031 | 69 | 81 | 0.0 | 2.0 | 0.00 | 0.04 | 0.04 | 39 | 1017.1 |
| 20260508180527 | 68 | 110 | 1.0 | 1.0 | 0.07 | 0.04 | 0.04 | 40 | 1017.2 |
| 20260508180023 | 69 | 96 | 0.0 | 3.0 | 0.07 | 0.04 | 0.04 | 42 | 1017.2 |
| 20260508175520 | 68 | 94 | 0.0 | 1.0 | 0.00 | 0.03 | 0.03 | 41 | 1017.3 |
| 20260508175017 | 68 | 100 | 0.0 | 2.0 | 0.05 | 0.03 | 0.03 | 40 | 1017.4 |
| 20260508174514 | 68 | 108 | 1.0 | 2.0 | 0.05 | 0.03 | 0.03 | 39 | 1017.3 |
| 20260508174011 | 68 | 138 | 2.0 | 3.0 | 0.00 | 0.02 | 0.02 | 47 | 1017.4 |
| 20260508173508 | 67 | 103 | 0.0 | 1.0 | 0.00 | 0.02 | 0.02 | 45 | 1017.4 |
| 20260508173004 | 67 | 109 | 0.0 | 2.0 | 0.00 | 0.02 | 0.02 | 39 | 1017.5 |
| 20260508172501 | 67 | 92 | 0.0 | 2.0 | 0.00 | 0.02 | 0.02 | 42 | 1017.5 |
| 20260508171958 | 67 | 97 | 0.0 | 2.0 | 0.00 | 0.02 | 0.02 | 46 | 1017.7 |
| 20260508171455 | 67 | 111 | 1.0 | 2.0 | 0.00 | 0.02 | 0.02 | 52 | 1017.9 |
| 20260508170951 | 66 | 100 | 0.0 | 1.0 | 0.00 | 0.02 | 0.02 | 50 | 1017.9 |
| 20260508170448 | 66 | 87 | 1.0 | 3.0 | 0.00 | 0.02 | 0.02 | 48 | 1017.9 |
| 20260508165945 | 67 | 109 | 1.0 | 2.0 | 0.00 | 0.02 | 0.02 | 48 | 1017.9 |
| 20260508165444 | 67 | 94 | 0.0 | 1.0 | 0.00 | 0.02 | 0.02 | 56 | 1018.1 |
| 20260508164939 | 65 | 95 | 0.0 | 1.0 | 0.00 | 0.02 | 0.02 | 51 | 1018.3 |
| 20260508164436 | 64 | 82 | 1.0 | 3.0 | 0.00 | 0.02 | 0.02 | 47 | 1018.3 |
| 20260508163933 | 64 | 78 | 2.0 | 3.0 | 0.00 | 0.02 | 0.02 | 50 | 1018.4 |
| 20260508163431 | 64 | 97 | 0.0 | 2.0 | 0.00 | 0.02 | 0.02 | 51 | 1018.4 |
| 20260508162926 | 64 | 101 | 0.0 | 2.0 | 0.00 | 0.02 | 0.02 | 45 | 1018.3 |
| 20260508162424 | 64 | 79 | 1.0 | 1.0 | 0.00 | 0.02 | 0.02 | 50 | 1018.8 |
| 20260508161921 | 65 | 96 | 0.0 | 2.0 | 0.00 | 0.02 | 0.02 | 46 | 1018.9 |
| 20260508161418 | 64 | 82 | 1.0 | 2.0 | 0.00 | 0.02 | 0.02 | 51 | 1018.9 |
| 20260508160915 | 64 | 28 | 2.0 | 2.0 | 0.00 | 0.02 | 0.02 | 48 | 1018.6 |
| 20260508160414 | 64 | 90 | 0.0 | 2.0 | 0.00 | 0.02 | 0.02 | 48 | 1019.1 |
| 20260508155909 | 64 | 100 | 0.0 | 1.0 | 0.00 | 0.02 | 0.02 | 52 | 1019.3 |
| 20260508155407 | 64 | 105 | 0.0 | 2.0 | 0.00 | 0.02 | 0.02 | 51 | 1019.0 |
| 20260508154904 | 63 | 111 | 0.0 | 1.0 | 0.00 | 0.02 | 0.02 | 47 | 1019.0 |
| 20260508154401 | 63 | 83 | 1.0 | 1.0 | 0.00 | 0.02 | 0.02 | 50 | 1019.1 |
| 20260508153858 | 62 | 105 | 0.0 | 0.0 | 0.00 | 0.02 | 0.02 | 56 | 1019.1 |
| 20260508153355 | 61 | 92 | 1.0 | 1.0 | 0.00 | 0.02 | 0.02 | 58 | 1019.3 |
| 20260508152851 | 60 | 117 | 0.0 | 2.0 | 0.00 | 0.02 | 0.02 | 57 | 1019.5 |
| 20260508152347 | 60 | 96 | 1.0 | 1.0 | 0.00 | 0.02 | 0.02 | 55 | 1019.6 |
| 20260508151844 | 61 | 102 | 0.0 | 0.0 | 0.00 | 0.02 | 0.02 | 56 | 1019.6 |
| 20260508151341 | 60 | 96 | 0.0 | 0.0 | 0.00 | 0.02 | 0.02 | 55 | 1019.7 |
| 20260508150837 | 60 | 105 | 0.0 | 1.0 | 0.00 | 0.02 | 0.02 | 53 | 1019.9 |
| 20260508150334 | 60 | 130 | 1.0 | 2.0 | 0.00 | 0.02 | 0.02 | 56 | 1019.7 |
| 20260508145830 | 60 | 111 | 1.0 | 1.0 | 0.00 | 0.02 | 0.02 | 62 | 1019.6 |
| 20260508145326 | 60 | 112 | 1.0 | 1.0 | 0.00 | 0.02 | 0.02 | 63 | 1019.6 |
| 20260508144823 | 60 | 119 | 1.0 | 2.0 | 0.00 | 0.02 | 0.02 | 63 | 1019.8 |
| 20260508144321 | 60 | 101 | 0.0 | 1.0 | 0.00 | 0.02 | 0.02 | 73 | 1019.8 |
| 20260508143819 | 59 | 100 | 0.0 | 0.0 | 0.00 | 0.02 | 0.02 | 71 | 1019.6 |
| 20260508143315 | 59 | 96 | 1.0 | 1.0 | 0.00 | 0.02 | 0.02 | 71 | 1019.7 |
| 20260508142812 | 58 | 93 | 0.0 | 0.0 | 0.00 | 0.02 | 0.02 | 73 | 1019.7 |
| 20260508142309 | 57 | 110 | 0.0 | 2.0 | 0.00 | 0.02 | 0.02 | 73 | 1019.6 |
| 20260508141806 | 57 | 104 | 1.0 | 1.0 | 0.00 | 0.02 | 0.02 | 75 | 1019.8 |
| 20260508141303 | 57 | 101 | 0.0 | 1.0 | 0.00 | 0.02 | 0.02 | 74 | 1019.9 |
| 20260508140800 | 57 | 117 | 0.0 | 0.0 | 0.00 | 0.02 | 0.02 | 79 | 1019.7 |
| 20260508140257 | 56 | 117 | 0.0 | 1.0 | 0.00 | 0.02 | 0.02 | 77 | 1020.0 |
| 20260508135752 | 56 | 115 | 0.0 | 0.0 | 0.00 | 0.02 | 0.02 | 77 | 1019.9 |
| 20260508135249 | 56 | 115 | 0.0 | 0.0 | 0.00 | 0.02 | 0.02 | 81 | 1020.0 |
| 20260508134745 | 55 | 100 | 0.0 | 1.0 | 0.00 | 0.02 | 0.02 | 80 | 1019.9 |
| 20260508134242 | 55 | 99 | 0.0 | 0.0 | 0.00 | 0.02 | 0.02 | 82 | 1020.2 |
| 20260508133739 | 55 | 93 | 0.0 | 0.0 | 0.00 | 0.02 | 0.02 | 86 | 1020.2 |
| 20260508133236 | 55 | 96 | 0.0 | 1.0 | 0.00 | 0.02 | 0.02 | 87 | 1020.0 |
| 20260508132734 | 53 | 93 | 0.0 | 1.0 | 0.00 | 0.02 | 0.02 | 87 | 1019.9 |
| 20260508132231 | 53 | 115 | 0.0 | 1.0 | 0.00 | 0.02 | 0.02 | 90 | 1019.4 |
| 20260508131727 | 52 | 115 | 0.0 | 0.0 | 0.00 | 0.02 | 0.02 | 92 | 1019.8 |
| 20260508131224 | 51 | 115 | 0.0 | 0.0 | 0.00 | 0.02 | 0.02 | 94 | 1019.7 |
| 20260508130720 | 50 | 115 | 0.0 | 0.0 | 0.00 | 0.02 | 0.02 | 96 | 1019.5 |
| 20260508130217 | 50 | 115 | 0.0 | 0.0 | 0.00 | 0.02 | 0.02 | 97 | 1019.7 |
| 20260508125713 | 49 | 116 | 0.0 | 1.0 | 0.00 | 0.02 | 0.02 | 98 | 1019.6 |
| 20260508125209 | 49 | 113 | 0.0 | 0.0 | 0.00 | 0.02 | 0.02 | 99 | 1019.7 |
| 20260508124708 | 48 | 113 | 0.0 | 0.0 | 0.00 | 0.02 | 0.02 | 99 | 1019.7 |
| 20260508124204 | 48 | 113 | 0.0 | 0.0 | 0.00 | 0.02 | 0.02 | 99 | 1019.7 |
| 20260508123703 | 48 | 113 | 0.0 | 0.0 | 0.00 | 0.02 | 0.02 | 99 | 1019.5 |
| 20260508123201 | 47 | 113 | 0.0 | 0.0 | 0.00 | 0.02 | 0.02 | 99 | 1019.6 |
| 20260508122656 | 47 | 113 | 0.0 | 0.0 | 0.00 | 0.02 | 0.02 | 99 | 1019.6 |
| 20260508122153 | 46 | 113 | 0.0 | 0.0 | 0.00 | 0.02 | 0.02 | 99 | 1019.5 |
| 20260508121651 | 46 | 113 | 0.0 | 0.0 | 0.00 | 0.02 | 0.02 | 99 | 1019.7 |
| 20260508121149 | 46 | 113 | 0.0 | 0.0 | 0.00 | 0.02 | 0.02 | 99 | 1019.5 |
| 20260508120646 | 45 | 113 | 0.0 | 0.0 | 0.00 | 0.02 | 0.02 | 99 | 1019.5 |
| 20260508120144 | 45 | 113 | 0.0 | 0.0 | 0.00 | 0.02 | 0.02 | 99 | 1019.5 |
| 20260508115642 | 44 | 113 | 0.0 | 0.0 | 0.00 | 0.02 | 0.02 | 99 | 1019.5 |
| 20260508115138 | 44 | 113 | 0.0 | 0.0 | 0.00 | 0.02 | 0.02 | 99 | 1019.3 |
| 20260508114636 | 44 | 113 | 0.0 | 0.0 | 0.00 | 0.02 | 0.02 | 99 | 1019.3 |
| 20260508114131 | 44 | 113 | 0.0 | 0.0 | 0.00 | 0.02 | 0.02 | 99 | 1019.0 |
| 20260508113629 | 43 | 114 | 0.0 | 0.0 | 0.00 | 0.02 | 0.02 | 99 | 1018.8 |
| 20260508113127 | 43 | 113 | 0.0 | 0.0 | 0.07 | 0.02 | 0.02 | 99 | 1018.8 |
| 20260508112623 | 43 | 114 | 0.0 | 0.0 | 0.07 | 0.02 | 0.02 | 99 | 1018.8 |
| 20260508112120 | 43 | 115 | 0.0 | 0.0 | 0.00 | 0.01 | 0.01 | 99 | 1018.5 |
| 20260508111616 | 43 | 114 | 0.0 | 0.0 | 0.00 | 0.01 | 0.01 | 99 | 1018.7 |
| 20260508111114 | 43 | 114 | 0.0 | 0.0 | 0.00 | 0.01 | 0.01 | 99 | 1018.5 |
| 20260508110612 | 43 | 114 | 0.0 | 0.0 | 0.00 | 0.01 | 0.01 | 99 | 1018.4 |
| 20260508110107 | 43 | 114 | 0.0 | 0.0 | 0.00 | 0.01 | 0.01 | 99 | 1018.3 |
| 20260508105602 | 43 | 114 | 0.0 | 0.0 | 0.00 | 0.01 | 0.01 | 99 | 1018.1 |
| 20260508105100 | 43 | 114 | 0.0 | 0.0 | 0.00 | 0.01 | 0.01 | 99 | 1018.3 |
| 20260508104557 | 43 | 114 | 0.0 | 1.0 | 0.00 | 0.01 | 0.01 | 99 | 1018.0 |
| 20260508104054 | 43 | 113 | 0.0 | 0.0 | 0.00 | 0.01 | 0.01 | 99 | 1018.1 |
| 20260508103551 | 43 | 113 | 0.0 | 0.0 | 0.00 | 0.01 | 0.01 | 99 | 1018.0 |
| 20260508103048 | 43 | 113 | 0.0 | 0.0 | 0.00 | 0.01 | 0.01 | 99 | 1017.9 |
| 20260508102546 | 43 | 112 | 0.0 | 1.0 | 0.00 | 0.01 | 0.01 | 99 | 1018.0 |
| 20260508102043 | 43 | 113 | 0.0 | 0.0 | 0.00 | 0.01 | 0.01 | 99 | 1017.8 |
| 20260508101540 | 43 | 113 | 0.0 | 0.0 | 0.00 | 0.01 | 0.01 | 99 | 1018.0 |
| 20260508101037 | 44 | 112 | 0.0 | 1.0 | 0.00 | 0.01 | 0.01 | 99 | 1017.9 |
| 20260508100536 | 44 | 109 | 0.0 | 0.0 | 0.00 | 0.01 | 0.01 | 99 | 1017.7 |
| 20260508100032 | 44 | 109 | 0.0 | 2.0 | 0.00 | 0.01 | 0.01 | 99 | 1017.8 |
| 20260508095529 | 44 | 106 | 0.0 | 1.0 | 0.00 | 0.01 | 0.01 | 99 | 1017.7 |
| 20260508095026 | 44 | 105 | 0.0 | 1.0 | 0.00 | 0.01 | 0.01 | 99 | 1017.5 |
| 20260508094523 | 44 | 102 | 0.0 | 0.0 | 0.00 | 0.01 | 0.01 | 99 | 1017.8 |
| 20260508094020 | 44 | 102 | 0.0 | 0.0 | 0.00 | 0.01 | 0.01 | 99 | 1017.7 |
| 20260508093517 | 44 | 103 | 0.0 | 0.0 | 0.00 | 0.01 | 0.01 | 99 | 1017.7 |
| 20260508093015 | 44 | 102 | 0.0 | 0.0 | 0.00 | 0.01 | 0.01 | 99 | 1017.6 |
| 20260508092512 | 44 | 102 | 0.0 | 0.0 | 0.00 | 0.01 | 0.01 | 99 | 1017.7 |
| 20260508092011 | 44 | 102 | 0.0 | 0.0 | 0.00 | 0.01 | 0.01 | 99 | 1017.7 |
| 20260508091507 | 44 | 102 | 0.0 | 0.0 | 0.00 | 0.01 | 0.01 | 99 | 1017.6 |
| 20260508090959 | 44 | 103 | 0.0 | 0.0 | 0.00 | 0.01 | 0.01 | 99 | 1017.6 |
| 20260508090458 | 44 | 103 | 0.0 | 0.0 | 0.00 | 0.01 | 0.01 | 99 | 1017.5 |
| 20260508085953 | 44 | 102 | 0.0 | 0.0 | 0.00 | 0.01 | 0.01 | 99 | 1017.5 |
| 20260508085450 | 44 | 103 | 0.0 | 0.0 | 0.00 | 0.01 | 0.01 | 99 | 1017.6 |
| 20260508084947 | 45 | 102 | 0.0 | 0.0 | 0.00 | 0.01 | 0.01 | 99 | 1017.6 |
| 20260508084443 | 45 | 102 | 0.0 | 0.0 | 0.00 | 0.01 | 0.01 | 99 | 1017.5 |
| 20260508083942 | 45 | 102 | 0.0 | 0.0 | 0.00 | 0.01 | 0.01 | 99 | 1017.6 |
| 20260508083438 | 45 | 102 | 0.0 | 0.0 | 0.00 | 0.01 | 0.01 | 99 | 1017.6 |
| 20260508082938 | 45 | 101 | 0.0 | 0.0 | 0.00 | 0.01 | 0.01 | 99 | 1017.5 |
| 20260508082435 | 45 | 101 | 0.0 | 0.0 | 0.00 | 0.01 | 0.01 | 99 | 1017.4 |
| 20260508081933 | 45 | 101 | 0.0 | 0.0 | 0.00 | 0.01 | 0.01 | 99 | 1017.6 |
| 20260508081430 | 45 | 101 | 0.0 | 0.0 | 0.00 | 0.01 | 0.01 | 99 | 1017.7 |
| 20260508080926 | 45 | 101 | 0.0 | 0.0 | 0.00 | 0.01 | 0.01 | 99 | 1017.5 |
| 20260508080425 | 45 | 101 | 0.0 | 0.0 | 0.00 | 0.01 | 0.01 | 98 | 1017.5 |
| 20260508075921 | 45 | 101 | 0.0 | 0.0 | 0.00 | 0.01 | 0.01 | 98 | 1017.8 |
| 20260508075418 | 45 | 101 | 0.0 | 0.0 | 0.00 | 0.01 | 0.01 | 98 | 1017.4 |
| 20260508074916 | 45 | 101 | 0.0 | 0.0 | 0.00 | 0.01 | 0.01 | 98 | 1017.6 |
| 20260508074408 | 46 | 101 | 0.0 | 0.0 | 0.00 | 0.01 | 0.01 | 98 | 1017.7 |
| 20260508073904 | 46 | 101 | 0.0 | 0.0 | 0.00 | 0.01 | 0.01 | 98 | 1017.6 |
| 20260508073402 | 46 | 101 | 0.0 | 0.0 | 0.00 | 0.01 | 0.01 | 98 | 1017.5 |
| 20260508072858 | 46 | 101 | 0.0 | 0.0 | 0.00 | 0.01 | 0.01 | 98 | 1017.6 |
| 20260508072354 | 46 | 101 | 0.0 | 0.0 | 0.00 | 0.01 | 0.01 | 98 | 1017.6 |
| 20260508071852 | 46 | 101 | 0.0 | 0.0 | 0.00 | 0.01 | 0.01 | 97 | 1017.7 |
| 20260508071350 | 46 | 101 | 0.0 | 0.0 | 0.00 | 0.01 | 0.01 | 97 | 1017.7 |
| 20260508070848 | 46 | 101 | 0.0 | 0.0 | 0.00 | 0.01 | 0.01 | 97 | 1017.8 |
| 20260508070345 | 46 | 101 | 0.0 | 0.0 | 0.00 | 0.01 | 0.01 | 97 | 1017.7 |
| 20260508065843 | 46 | 101 | 0.0 | 0.0 | 0.00 | 0.01 | 0.01 | 97 | 1017.5 |
| 20260508065341 | 46 | 101 | 0.0 | 0.0 | 0.00 | 0.01 | 0.01 | 97 | 1017.7 |
| 20260508064839 | 47 | 101 | 0.0 | 0.0 | 0.00 | 0.01 | 0.01 | 97 | 1017.6 |
| 20260508064336 | 47 | 101 | 0.0 | 0.0 | 0.00 | 0.01 | 0.01 | 96 | 1017.7 |
| 20260508063834 | 47 | 101 | 0.0 | 0.0 | 0.00 | 0.01 | 0.01 | 96 | 1017.7 |
| 20260508063331 | 47 | 101 | 0.0 | 0.0 | 0.00 | 0.01 | 0.01 | 96 | 1017.8 |
| 20260508062828 | 47 | 101 | 0.0 | 0.0 | 0.00 | 0.01 | 0.01 | 96 | 1017.7 |
| 20260508062326 | 47 | 101 | 0.0 | 0.0 | 0.00 | 0.01 | 0.01 | 95 | 1017.7 |
| 20260508061822 | 47 | 101 | 0.0 | 0.0 | 0.00 | 0.01 | 0.01 | 95 | 1017.6 |
| 20260508061320 | 48 | 101 | 0.0 | 0.0 | 0.00 | 0.01 | 0.01 | 95 | 1017.6 |
| 20260508060816 | 48 | 101 | 0.0 | 0.0 | 0.00 | 0.01 | 0.01 | 95 | 1017.8 |
| 20260508060314 | 48 | 101 | 0.0 | 0.0 | 0.00 | 0.01 | 0.01 | 95 | 1017.7 |
| 20260508055814 | 48 | 101 | 0.0 | 0.0 | 0.00 | 0.01 | 0.01 | 95 | 1017.7 |
| 20260508055313 | 48 | 101 | 0.0 | 0.0 | 0.00 | 0.01 | 0.01 | 94 | 1017.7 |
| 20260508054809 | 49 | 101 | 0.0 | 0.0 | 0.00 | 0.01 | 0.01 | 93 | 1017.6 |
| 20260508054306 | 49 | 101 | 0.0 | 0.0 | 0.00 | 0.01 | 0.01 | 93 | 1017.6 |
| 20260508053803 | 49 | 101 | 0.0 | 0.0 | 0.00 | 0.01 | 0.01 | 93 | 1017.6 |
| 20260508053300 | 49 | 101 | 0.0 | 0.0 | 0.00 | 0.01 | 0.01 | 94 | 1017.7 |
| 20260508052757 | 49 | 101 | 0.0 | 0.0 | 0.00 | 0.01 | 0.01 | 94 | 1017.7 |
| 20260508052255 | 48 | 101 | 0.0 | 0.0 | 0.00 | 0.01 | 0.01 | 94 | 1017.6 |
| 20260508051750 | 49 | 101 | 0.0 | 0.0 | 0.00 | 0.01 | 0.01 | 95 | 1017.6 |
| 20260508051246 | 48 | 101 | 0.0 | 0.0 | 0.00 | 0.01 | 0.01 | 94 | 1017.5 |
| 20260508050743 | 48 | 101 | 0.0 | 0.0 | 0.00 | 0.01 | 0.01 | 94 | 1017.7 |
| 20260508050240 | 48 | 101 | 0.0 | 0.0 | 0.00 | 0.01 | 0.01 | 94 | 1017.8 |
| 20260508045735 | 48 | 101 | 0.0 | 0.0 | 0.00 | 0.01 | 0.01 | 94 | 1017.8 |
| 20260508045234 | 48 | 101 | 0.0 | 0.0 | 0.00 | 0.01 | 0.01 | 94 | 1017.6 |
| 20260508044731 | 49 | 101 | 0.0 | 0.0 | 0.00 | 0.01 | 0.01 | 94 | 1017.6 |
| 20260508044227 | 49 | 101 | 0.0 | 0.0 | 0.00 | 0.01 | 0.01 | 94 | 1017.6 |
| 20260508043723 | 49 | 101 | 0.0 | 0.0 | 0.00 | 0.01 | 0.01 | 94 | 1017.6 |
| 20260508043221 | 49 | 101 | 0.0 | 0.0 | 0.00 | 0.01 | 0.01 | 93 | 1017.6 |
| 20260508042717 | 49 | 101 | 0.0 | 0.0 | 0.00 | 0.01 | 0.01 | 93 | 1017.5 |
| 20260508042215 | 50 | 101 | 0.0 | 0.0 | 0.00 | 0.01 | 0.01 | 94 | 1017.5 |
| 20260508041711 | 49 | 101 | 0.0 | 0.0 | 0.00 | 0.01 | 0.01 | 93 | 1017.4 |
| 20260508041209 | 49 | 101 | 0.0 | 0.0 | 0.05 | 0.01 | 0.01 | 93 | 1017.3 |
| 20260508040705 | 49 | 101 | 0.0 | 0.0 | 0.05 | 0.01 | 0.01 | 93 | 1017.4 |
| 20260508040202 | 50 | 101 | 0.0 | 0.0 | 0.00 | 0.00 | 0.00 | 93 | 1017.5 |
| 20260508035659 | 50 | 101 | 0.0 | 0.0 | 0.00 | 0.10 | 0.10 | 92 | 1017.5 |
| 20260508035157 | 50 | 101 | 0.0 | 0.0 | 0.00 | 0.10 | 0.10 | 91 | 1017.2 |
| 20260508034653 | 50 | 101 | 0.0 | 0.0 | 0.00 | 0.10 | 0.10 | 91 | 1017.2 |
| 20260508034150 | 50 | 101 | 0.0 | 0.0 | 0.00 | 0.10 | 0.10 | 90 | 1017.1 |
| 20260508033648 | 50 | 101 | 0.0 | 0.0 | 0.00 | 0.10 | 0.10 | 91 | 1017.2 |
| 20260508033146 | 50 | 101 | 0.0 | 0.0 | 0.00 | 0.10 | 0.10 | 92 | 1017.0 |
| 20260508032643 | 51 | 101 | 0.0 | 0.0 | 0.00 | 0.10 | 0.10 | 92 | 1017.1 |
| 20260508032140 | 51 | 101 | 0.0 | 0.0 | 0.00 | 0.10 | 0.10 | 92 | 1017.3 |
| 20260508031637 | 51 | 101 | 0.0 | 0.0 | 0.00 | 0.10 | 0.10 | 92 | 1017.1 |
| 20260508031133 | 51 | 101 | 0.0 | 0.0 | 0.00 | 0.10 | 0.10 | 92 | 1017.1 |
| 20260508030629 | 51 | 101 | 0.0 | 0.0 | 0.00 | 0.10 | 0.10 | 92 | 1017.0 |
| 20260508030127 | 51 | 102 | 0.0 | 0.0 | 0.00 | 0.10 | 0.10 | 92 | 1017.1 |
| 20260508025623 | 51 | 101 | 0.0 | 1.0 | 0.00 | 0.10 | 0.10 | 93 | 1017.0 |
| 20260508025121 | 51 | 102 | 0.0 | 0.0 | 0.00 | 0.10 | 0.10 | 93 | 1016.8 |
| 20260508024616 | 51 | 102 | 0.0 | 0.0 | 0.00 | 0.10 | 0.10 | 92 | 1016.8 |
| 20260508024114 | 51 | 102 | 0.0 | 0.0 | 0.00 | 0.10 | 0.10 | 92 | 1017.0 |
| 20260508023610 | 51 | 102 | 0.0 | 0.0 | 0.00 | 0.10 | 0.10 | 93 | 1016.7 |
| 20260508023107 | 52 | 102 | 0.0 | 0.0 | 0.00 | 0.10 | 0.10 | 92 | 1016.7 |
| 20260508022603 | 52 | 102 | 0.0 | 0.0 | 0.00 | 0.10 | 0.10 | 92 | 1016.6 |
| 20260508022101 | 52 | 102 | 0.0 | 0.0 | 0.00 | 0.10 | 0.10 | 92 | 1016.8 |
| 20260508021556 | 52 | 103 | 0.0 | 1.0 | 0.00 | 0.10 | 0.10 | 91 | 1016.8 |
| 20260508021052 | 52 | 93 | 0.0 | 0.0 | 0.00 | 0.10 | 0.10 | 93 | 1016.9 |
| 20260508020549 | 53 | 93 | 0.0 | 0.0 | 0.00 | 0.10 | 0.10 | 94 | 1016.8 |
| 20260508020047 | 52 | 93 | 0.0 | 0.0 | 0.00 | 0.10 | 0.10 | 93 | 1016.9 |
| 20260508015544 | 53 | 93 | 0.0 | 0.0 | 0.07 | 0.10 | 0.10 | 93 | 1016.4 |
| 20260508015042 | 53 | 93 | 0.0 | 0.0 | 0.07 | 0.10 | 0.10 | 92 | 1016.5 |
| 20260508014538 | 53 | 92 | 0.0 | 0.0 | 0.00 | 0.09 | 0.09 | 92 | 1016.2 |
| 20260508014034 | 53 | 92 | 0.0 | 0.0 | 0.00 | 0.09 | 0.09 | 92 | 1016.2 |
| 20260508013530 | 53 | 92 | 0.0 | 0.0 | 0.00 | 0.09 | 0.09 | 90 | 1016.3 |
| 20260508013028 | 53 | 92 | 0.0 | 0.0 | 0.00 | 0.09 | 0.09 | 88 | 1016.1 |
| 20260508012525 | 53 | 92 | 0.0 | 0.0 | 0.00 | 0.09 | 0.09 | 88 | 1016.0 |
| 20260508012022 | 53 | 92 | 0.0 | 0.0 | 0.00 | 0.09 | 0.09 | 87 | 1016.1 |